South Paris, Maine, United States (04281)
Lat: 44.22N, Lon: 70.51W
Wx Zone: MEZ012
Local Info
Past Weather Observations for Sunday, November 23, 2014

NOTE: This archive is for the closest National Weather Service station to South Paris. Information may differ from the station used for current weather conditions.

Click here for Long-term Archive

Time Weather Temperature Dewpoint Humidity Pressure Winds Precip Visibility
23:55
Overcast
34°F / 1°C 30°F / -1°C 87% 30.09 in
(1019 mb)
Calm - 10SM
23:35
Overcast
36°F / 2°C 30°F / -1°C 81% 30.09 in
(1019 mb)
Calm - 10SM
23:15
Overcast
34°F / 1°C 30°F / -1°C 87% 30.09 in
(1019 mb)
NE 3.5 mph
(NE 6 kph)
- 10SM
22:55
Overcast
34°F / 1°C 28°F / -2°C 81% 30.12 in
(1020 mb)
Calm - 10SM
22:35
Mostly Cloudy
34°F / 1°C 28°F / -2°C 81% 30.09 in
(1019 mb)
Calm - 9SM
22:15
Partly Cloudy
34°F / 1°C 30°F / -1°C 87% 30.12 in
(1020 mb)
Calm - 9SM
21:55
Mostly Cloudy
30°F / -1°C 28°F / -2°C 93% 30.12 in
(1020 mb)
Calm - 10SM
21:35
Mostly Cloudy
32°F / 0°C 28°F / -2°C 87% 30.12 in
(1020 mb)
Calm - 9SM
21:15
Partly Cloudy
32°F / 0°C 30°F / -1°C 93% 30.12 in
(1020 mb)
Calm - 8SM
20:55
Clear
30°F / -1°C 28°F / -2°C 93% 30.12 in
(1020 mb)
Calm - 10SM
20:35
Partly Cloudy
34°F / 1°C 30°F / -1°C 87% 30.12 in
(1020 mb)
Calm - 6SM
20:15
Partly Cloudy
32°F / 0°C 28°F / -2°C 87% 30.12 in
(1020 mb)
Calm - 2SM
19:55
Clear
34°F / 1°C 30°F / -1°C 87% 30.12 in
(1020 mb)
Calm - 4SM
19:35
Clear
36°F / 2°C 30°F / -1°C 81% 30.12 in
(1020 mb)
Calm - 8SM
19:15
Clear
34°F / 1°C 28°F / -2°C 81% 30.12 in
(1020 mb)
Calm - 7SM
18:55
Clear
36°F / 2°C 30°F / -1°C 81% 30.12 in
(1020 mb)
Calm - 9SM
18:35
Clear
36°F / 2°C 30°F / -1°C 81% 30.09 in
(1019 mb)
Calm - 9SM
18:15
Clear
37°F / 3°C 34°F / 1°C 87% 30.09 in
(1019 mb)
Calm - 10SM
17:55
Clear
39°F / 4°C 34°F / 1°C 81% 30.09 in
(1019 mb)
Calm - 10SM
17:35
Clear
37°F / 3°C 34°F / 1°C 87% 30.09 in
(1019 mb)
Calm - 10SM
17:15
Clear
39°F / 4°C 34°F / 1°C 81% 30.09 in
(1019 mb)
S 3.5 mph
(S 6 kph)
- 10SM
16:55
Clear
46°F / 8°C 37°F / 3°C 71% 30.09 in
(1019 mb)
SSE 4.6 mph
(SSE 7 kph)
- 10SM
16:35
Clear
45°F / 7°C 36°F / 2°C 71% 30.09 in
(1019 mb)
S 3.5 mph
(S 6 kph)
- 10SM
16:15
Clear
50°F / 10°C 37°F / 3°C 62% 30.09 in
(1019 mb)
Calm - 10SM
15:55
Clear
48°F / 9°C 37°F / 3°C 66% 30.09 in
(1019 mb)
SW 3.5 mph
(SW 6 kph)
- 10SM
15:35
Clear
52°F / 11°C 37°F / 3°C 58% 30.09 in
(1019 mb)
SSE 6.9 mph
(SSE 11 kph)
- 10SM
15:15
Clear
54°F / 12°C 39°F / 4°C 58% 30.09 in
(1019 mb)
SW 5.8 mph
(SW 9 kph)
- 10SM
14:55
Clear
54°F / 12°C 39°F / 4°C 58% 30.06 in
(1018 mb)
SSE 6.9 mph
(SSE 11 kph)
- 10SM
14:35
Clear
54°F / 12°C 39°F / 4°C 58% 30.06 in
(1018 mb)
SSW 6.9 mph
(SSW 11 kph)
- 10SM
14:15
Clear
54°F / 12°C 39°F / 4°C 58% 30.06 in
(1018 mb)
SW 9.2 mph
(SW 15 kph)
- 10SM
13:55
Partly Cloudy
54°F / 12°C 39°F / 4°C 58% 30.06 in
(1018 mb)
SW 6.9 mph
(SW 11 kph)
- 10SM
13:35
Partly Cloudy
54°F / 12°C 39°F / 4°C 58% 30.06 in
(1018 mb)
SW 11.5 mph
(SW 19 kph)
- 10SM
13:15
Clear
54°F / 12°C 39°F / 4°C 58% 30.06 in
(1018 mb)
SSE 8.1 mph
(SSE 13 kph)
- 10SM
12:55
Partly Cloudy
54°F / 12°C 39°F / 4°C 58% 30.06 in
(1018 mb)
SW 4.6 mph
(SW 7 kph)
- 10SM
12:35
Overcast
52°F / 11°C 37°F / 3°C 58% 30.06 in
(1018 mb)
SSW 4.6 mph
(SSW 7 kph)
- 10SM
12:15
Mostly Cloudy
52°F / 11°C 37°F / 3°C 58% 30.06 in
(1018 mb)
SW 6.9 mph
(SW 11 kph)
- 10SM
11:55
Partly Cloudy
52°F / 11°C 37°F / 3°C 58% 30.06 in
(1018 mb)
SSW 9.2 mph
(SSW 15 kph)
- 10SM
11:35
Partly Cloudy
52°F / 11°C 37°F / 3°C 58% 30.06 in
(1018 mb)
SW 5.8 mph
(SW 9 kph)
- 10SM
11:15
Partly Cloudy
52°F / 11°C 37°F / 3°C 58% 30.06 in
(1018 mb)
SSW 4.6 mph
(SSW 7 kph)
- 10SM
10:55
Clear
52°F / 11°C 36°F / 2°C 54% 30.06 in
(1018 mb)
S 3.5 mph
(S 6 kph)
- 10SM
10:35
Clear
48°F / 9°C 36°F / 2°C 62% 30.06 in
(1018 mb)
Calm - 10SM
10:15
Clear
46°F / 8°C 34°F / 1°C 62% 30.06 in
(1018 mb)
Calm - 10SM
09:55
Clear
45°F / 7°C 32°F / 0°C 61% 30.06 in
(1018 mb)
Calm - 10SM
09:35
Clear
43°F / 6°C 28°F / -2°C 57% 30.06 in
(1018 mb)
Calm - 10SM
09:15
Clear
39°F / 4°C 28°F / -2°C 65% 30.06 in
(1018 mb)
Calm - 10SM
08:55
Clear
36°F / 2°C 25°F / -4°C 65% 30.06 in
(1018 mb)
Calm - 10SM
08:35
Clear
34°F / 1°C 25°F / -4°C 70% 30.04 in
(1017 mb)
NNE 3.5 mph
(NNE 6 kph)
- 10SM
08:15
Clear
34°F / 1°C 25°F / -4°C 70% 30.04 in
(1017 mb)
Calm - 10SM
07:55
Clear
30°F / -1°C 21°F / -6°C 69% 30.04 in
(1017 mb)
Calm - 10SM
07:35
Partly Cloudy
28°F / -2°C 21°F / -6°C 74% 30.01 in
(1016 mb)
Calm - 10SM
07:15
Mostly Cloudy
28°F / -2°C 21°F / -6°C 74% 30.01 in
(1016 mb)
Calm - 10SM
06:55
Clear
28°F / -2°C 19°F / -7°C 69% 30.01 in
(1016 mb)
Calm - 10SM
06:35
Clear
27°F / -3°C 19°F / -7°C 74% 30.01 in
(1016 mb)
N 4.6 mph
(N 7 kph)
- 10SM
06:15
Partly Cloudy
28°F / -2°C 19°F / -7°C 69% 29.98 in
(1015 mb)
Calm - 10SM
05:55
Partly Cloudy
30°F / -1°C 21°F / -6°C 69% 29.98 in
(1015 mb)
Calm - 10SM
05:35
Clear
30°F / -1°C 21°F / -6°C 69% 29.98 in
(1015 mb)
Calm - 10SM
05:15
Partly Cloudy
30°F / -1°C 21°F / -6°C 69% 29.98 in
(1015 mb)
Calm - 10SM
04:55
Mostly Cloudy
34°F / 1°C 25°F / -4°C 70% 29.98 in
(1015 mb)
N 3.5 mph
(N 6 kph)
- 10SM
04:35
Mostly Cloudy
32°F / 0°C 21°F / -6°C 64% 29.98 in
(1015 mb)
Calm - 10SM
04:15
Partly Cloudy
30°F / -1°C 19°F / -7°C 64% 29.98 in
(1015 mb)
Calm - 10SM
03:55
Partly Cloudy
30°F / -1°C 21°F / -6°C 69% 29.98 in
(1015 mb)
Calm - 10SM
03:35
Clear
32°F / 0°C 25°F / -4°C 75% 29.95 in
(1014 mb)
Calm - 10SM
03:15
Clear
30°F / -1°C 21°F / -6°C 69% 29.95 in
(1014 mb)
SSE 4.6 mph
(SSE 7 kph)
- 10SM
02:55
Clear
39°F / 4°C 27°F / -3°C 61% 29.95 in
(1014 mb)
S 6.9 mph
(S 11 kph)
- 10SM
02:35
Clear
39°F / 4°C 27°F / -3°C 61% 29.95 in
(1014 mb)
Calm - 10SM
02:15
Mostly Cloudy
37°F / 3°C 25°F / -4°C 60% 29.95 in
(1014 mb)
SSE 3.5 mph
(SSE 6 kph)
- 10SM
01:55
Overcast
36°F / 2°C 23°F / -5°C 60% 29.95 in
(1014 mb)
SSE 4.6 mph
(SSE 7 kph)
- 10SM
01:35
Mostly Cloudy
28°F / -2°C 16°F / -9°C 59% 29.95 in
(1014 mb)
SW 4.6 mph
(SW 7 kph)
- 10SM
01:15
Mostly Cloudy
30°F / -1°C 18°F / -8°C 59% 29.95 in
(1014 mb)
Calm - 10SM
00:55
Overcast
30°F / -1°C 18°F / -8°C 59% 29.95 in
(1014 mb)
Calm - 10SM
00:35
Overcast
32°F / 0°C 16°F / -9°C 51% 29.95 in
(1014 mb)
Calm - 10SM
00:15
Partly Cloudy
34°F / 1°C 19°F / -7°C 56% 29.95 in
(1014 mb)
Calm - 10SM
Time Weather Temperature Dewpoint Humidity Pressure Winds Precip Visibility


Weather for websites

WeatherForYou.com, LLC is not responsible for any damages or problems caused by this service. Current weather conditions are obtained from the closest station including government and personal stations which may have varying degrees of accuracy. Weather forecasts are derived from the NOAA NDFD. Like all things, this site belongs to Jesus Christ... He just trusts me to maintain it. If you have any questions or comments email webmaster@weatherforyou.com

Copyright © 2014, WeatherForYou.com LLC. All rights reserved.